Regional Weather Roundup
Issued by NWS Mobile, AL

Home | Current Version | Previous Version | Text Only | Print | Product List | Glossary On
Versions: 1 2 3 4 5 6 7 8 9 10 11 12 13 14 15 16 17 18 19 20 21 22 23 24 25 26 27 28 29 30 31 32 33 34 35 36 37 38 39 40 41 42 43 44 45 46 47 48 49 50
321
ASUS44 KMOB 241112
RWRMOB
REGIONAL WEATHER ROUNDUP
NATIONAL WEATHER SERVICE MOBILE AL
500 AM CST TUE JAN 24 2017

NOTE: "FAIR" INDICATES FEW OR NO CLOUDS BELOW 12,000 FEET WITH NO
      SIGNIFICANT WEATHER AND/OR OBSTRUCTIONS TO VISIBILITY.

  * THESE STATIONS ARE PART OF THE UNIVERSITY OF SOUTH ALABAMA
    MESONET AND ARE NOT UNDER NWS OR FAA QUALITY CONTROL.

ALZ061>064-241200-
COASTAL ALABAMA

CITY           SKY/WX    TMP DP  RH WIND       PRES   REMARKS
MOBILE REG APT PTCLDY    43  40  89 NW3       29.92R
BROOKLEY FIELD CLEAR     47  42  83 NW9       29.93S
USA CAMPUS*      N/A     43  41  93 CALM      29.91S
DOG RIVER*       N/A     46  43  87 NW5       30.64R


CITY           SKY/WX    TMP DP  RH WIND       PRES   REMARKS
GULF SHORES    CLEAR     46  45  95 NW6       29.90S

$$

ALZ051>060-241200-
INTERIOR SOUTHWEST AND SOUTH CENTRAL ALABAMA

CITY           SKY/WX    TMP DP  RH WIND       PRES   REMARKS
GREENVILLE     CLOUDY    44  38  79 NW9       29.87R
EVERGREEN      CLEAR     42  39  89 CALM      29.90R
ATMORE*          N/A     43  43 100 NW7       29.93R
ANDALUSIA/OPP  CLOUDY    47  42  83 NW10      29.88R
ANDALUSIA*       N/A     43  41  93 W6        29.88R
FLORALA APT    CLEAR     44  41  89 CALM      29.89R
FLORALA*         N/A     45  43  93 SW5       30.56R

$$

FLZ001>006-241200-
WESTERN FLORIDA PANHANDLE

CITY           SKY/WX    TMP DP  RH WIND       PRES   REMARKS
PENSACOLA      CLEAR     48  42  80 NW13      29.89R
NAS PENSACOLA  CLEAR     47  43  86 NW6       29.89R
MILTON         LGT RAIN  45  42  89 NW6       29.90R
WHTNG S FIELD  CLEAR     47  43  86 NW8       29.90R


CITY           SKY/WX    TMP DP  RH WIND       PRES   REMARKS
JAY*             N/A     43  41  93 W7        29.91R
DUKE FIELD     CLEAR     46  42  88 NW8       29.88R
CRESTVIEW      CLEAR     45  41  86 NW7       29.90R
VALPARAISO     CLEAR     45  42  91 NW7       29.89R
DESTIN         CLEAR     52  46  80 NW8       29.89R

$$

MSZ076-079-241200-
INTERIOR SOUTHEAST MISSISSIPPI

CITY           SKY/WX    TMP DP  RH WIND       PRES   REMARKS
LEAKESVILLE*   NOT AVBL
AGRICOLA*      NOT AVBL

$$

MARINE OBSERVATIONS

STATION/POSITION TIME  TEMP    WIND        PRES    WAVE
                       AIR SEA DIR/SP/G            HT/PER
                 (UTC) (F)     (DEG/KT/KT) (MB)    (FT/S)
PASCAGOULA       1048   49     360/  9/ 13 1012.7R
PETIT BOIS ISLND 1042   51     360/ 11/ 12 1013.5R
GRAND BAY        0945   49     350/  5     1014.0R
KATRINA CUT      1030          360/ 13     1012.2F
CEDAR POINT      1030   49      10/  8     1012.2S
E DAUPHIN ISLAND 1000   52     340/ 12/ 14 1012.4R
MIDDLE BAY LIGHT 1030   51     360/ 12     1012.2S
USCG MOBILE BAY  1042   46 62  340/  6/ 10 1013.5S
STATE DOCKS      1042   46 60              1012.9R
MEAHER PARK      1030   47     320/  8     1012.9S
WEEKS BAY        0945   49                   N/A
FORT MORGAN      1042   53     360/ 15/ 17   N/A
12 S ORANGE BCH  1050   55 64  340/ 16/ 19 1012.0F   3/ 7
PENSACOLA BAY    1042   48 61  350/  5/  9 1012.4R
67 S FORT MORGAN 1030   63                 1012.5R

$$

SELECTED LOCATIONS ACROSS THE REGION

CITY           SKY/WX    TMP DP  RH WIND       PRES   REMARKS
NEW ORLEANS    CLEAR     48  46  93 CALM      29.91S
GULFPORT       CLEAR     46  43  89 N5        29.91S
PASCAGOULA AP  CLEAR     45  41  86 N3        29.92R
PASCAGOULA*    NOT AVBL
HATTIESBURG    CLEAR     40  39  97 CALM      29.93S
LAUREL         CLEAR     37  34  87 CALM      29.93S
MERIDIAN       CLOUDY    37  36  96 CALM      29.93R
JACKSON        CLEAR     37  35  92 CALM      29.91S
MONTGOMERY     CLOUDY    48  39  71 W9        29.89R
TROY           CLOUDY    43  42  97 W5        29.87R
ASHFORD*         N/A     43  41  93 W6        29.88R
DOTHAN         CLEAR     45  45 100 W8        29.88R
PANAMA CITY    CLEAR     48  44  86 W5        29.86R

$$





USA.gov is the U.S. government's official web portal to all federal, state and local government web resources and services.